CZ-4 DEB, 26286

Orbit data source: Space-Track

CZ-4 DEB, 26286 is space debris in SSO originally from a launch on Thu, 14 Oct 1999 UTC launched from the Taiyaun Space Center, China (TSC). Debris objects in space refer to the collection of defunct objects orbiting the Earth. Examples of debris include non-operational satellites, rocket bodies, and fragments generated from explosions, collisions, or faulty payload assembly.

Loading next visibility...
Identifier
26286, 1999-057FY
Orbit
SSO
Country
Flag of CNCN / PRC
Related business
Manufacturer
Unknown
Mission
Spacecraft
Bus & Motor
Unknown
Mass
Unknown
Launch date (UTC)
1999-10-14 (26 years ago)
Launch vehicle
Unknown
Launch site
Taiyaun Space Center, China (TSC)
Object type
Payload
Rocket body
Debris
Shape & HBR
Unknown shape, 0.1 m
Radar Cross Section
Small (<0.1 m²)

Expand to show TLE details & history
Last TLE update: 1 day ago

TLE from 1 day ago
0 CZ-4 DEB
1 26286U 99057FY  25349.11190133  .00002359  00000-0  45591-3 0  9992
2 26286  98.4110  46.2744 0060982 103.4504 287.6005 14.63209201360283
Epoch: 2025-12-15T02:41Z
TLE epoch observation values (Epoch: 2025-12-15T02:41:08.274Z)
Latitude
30.07584°
Longitude
-82.91091°
Altitude
673.863 km
Speed
7.53 km/s
True Right ascension
02h 45m 33s
True Declination
29° 55' 31"
Sunlit
Object was in full shadow at epoch
Visualization orbit readout
Latitude
Unknown
Longitude
Unknown
Altitude
Unknown
Speed
Unknown
Apparent Right ascension
Unknown
Apparent Declination
Unknown
Sunlit
N/A
Visualization observer readout
Local Sidereal Time
01:17:05
Azimuth
Unknown
Elevation
Unknown
Doppler factor
Unknown
Orbital elements
Apogee altitude
722.959 km
Perigee altitude
636.876 km
Semi-major axis
7,058.054 km
Eccentricity
0.0061
Inclination
98.411°
RAAN
46.2744°
Arg. of periapsis
103.4504°
True anomaly
286.93289°
Mean anomaly
287.6005°
Eccentric anomaly
287.26685°
Mean motion
3.66029 °/min
Orbital period
98.35 mins
BSTAR
0.00045591
Loading maneuver chart data...
Computing Atmospheric mass density...
Loading historical data...
Loading historical data...
Loading historical data...
Loading historical data...
Loading historical data...
Loading historical data...
Loading historical data...

Documentation

Showing up to 5 results
|